x

Columbia River Bar - 20nm West Of Columbia River Mouth (46029) Wave Buoy

6:50 - Sat 21st Jan 2017 All times are PST. -8 hours from GMT.

  • Sig Wave height 17.1ft
  • Peak Period 15s
  • Average Period 11s
  • Wind
    20mph, 25mph gusts
  • Sea Temp 49°f
  • Air Temp 47°f
  • Sea Pressure 998.5mb
  • Columbia River Bar - 20nm West Of Columbia River Mouth
  • Columbia River Bar - 20nm West Of Columbia River Mouth

More Historic Weather Station data

Upgrade to MSW Pro to gain access to the past 30 days of data for over 8000 Wavebouys and Weather Stations around the globe.

Join Pro

Comparision Forecast

View Surf forecast
   
sam. 01/21 6:50 17ft 15s 11s 20 25 mph 998.5mb 49f 47f
5:50 16ft 17s 11s 18 25 mph 997.8mb 49f 47f
4:50 16.5ft 17s 12s 20 22 mph 996.9mb 49f 47f
3:50 17.5ft 16s 12s 16 20 mph 996.2mb 49f 48f
2:50 16ft 17s 11s 18 22 mph 995.5mb 49f 48f
1:50 15ft 17s 11s 16 20 mph 994.7mb 49f 48f
12:50 15ft 15s 11s 16 22 mph 993.9mb 49f 48f
11:50 16.5ft 19s 11s 18 27 mph 993.6mb 49f 46f
10:50 20.5ft 17s 12s 20 25 mph 993.3mb 49f 44f
9:50 17ft 19s 12s 22 27 mph 992.4mb 50f 45f
8:50 16.5ft 19s 12s 20 27 mph 991.5mb 50f 45f
7:50 18.5ft 19s 12s 20 25 mph 990.6mb 49f 45f
6:50 19.5ft 19s 12s 20 27 mph 989.9mb 49f 45f
5:50 15.5ft 17s 11s 20 27 mph 989.5mb 49f 45f
4:50 17ft 17s 12s 20 25 mph 989mb 49f 45f
3:50 15ft 19s 11s 20 25 mph 988.8mb 49f 46f
2:50 13ft 19s 10s 18 22 mph 988.6mb 49f 46f
1:50 11.5ft 19s 9s 20 25 mph 988.1mb 49f 46f
12:50 11ft 15s 9s 20 25 mph 987.8mb 49f 46f
ven. 01/20 11:50 9.5ft 14s 8s 18 22 mph 987.4mb 49f 46f
10:50 10ft 15s 8s 20 25 mph 986.9mb 49f 46f
9:50 10ft 16s 8s 20 25 mph 986.6mb 49f 46f
8:50 10ft 16s 8s 22 27 mph 986.1mb 49f 46f
7:50 11ft 16s 8s 22 29 mph 985.6mb 49f 45f
6:50 11.5ft 15s 8s 22 31 mph 985.2mb 49f 45f
5:50 11ft 16s 8s 22 29 mph 984.8mb 50f 46f
4:50 11ft 15s 8s 25 29 mph 984.4mb 50f 46f
3:50 11.5ft 15s 8s 22 29 mph 984.2mb 50f 46f
2:50 12ft 16s 9s 22 27 mph 983.8mb 50f 47f
1:50 13ft 15s 9s 22 29 mph 983.5mb 49f 47f
12:50 15ft 16s 10s 25 29 mph 983.4mb 49f 47f
11:50 13ft 16s 9s 25 29 mph 983.8mb 49f 47f
10:50 14ft 16s 10s 25 31 mph 984mb 49f 46f
9:50 15ft 16s 10s 22 29 mph 984.2mb 49f 47f
8:50 15ft 16s 10s 25 31 mph 983.8mb 49f 47f
7:50 15ft 16s 10s 27 34 mph 983.9mb 49f 47f
6:50 15.5ft 16s 10s 25 34 mph 984.6mb 49f 48f
5:50 12.5ft 13s 9s 25 34 mph 985.7mb 49f 47f
4:50 13ft 16s 9s 22 34 mph 987.1mb 49f 47f
3:50 15ft 16s 9s 25 34 mph 988.3mb 49f 47f
2:50 15ft 14s 9s 25 31 mph 989.7mb 50f 46f
1:50 13.5ft 15s 9s 22 31 mph 991.1mb 49f 46f
12:50 12ft 15s 8s 25 31 mph 992.2mb 49f 46f
jeu. 01/19 11:50 15ft 15s 9s 22 27 mph 993.3mb 49f 46f
10:50 14.5ft 13s 9s 27 34 mph 994.1mb 49f 47f
9:50 13ft 15s 9s 20 27 mph 995mb 49f 48f
8:50 13ft 13s 9s 20 25 mph 995.6mb 49f 49f
7:50 12ft 14s 8s 18 22 mph 996.1mb 49f 49f
6:50 12ft 13s 8s 20 25 mph 996.5mb 49f 47f
5:50 12ft 12s 8s 13 16 mph 997mb 49f 48f
4:50 11.5ft 13s 8s 16 20 mph 997mb 49f 48f
3:50 12ft 13s 8s 16 18 mph 997.1mb 49f 48f
2:50 11.5ft 12s 8s 16 18 mph 996.9mb 49f 48f
1:50 11.5ft 13s 8s 16 18 mph 997mb 49f 48f
12:50 11ft 11s 8s 16 18 mph 997.4mb 49f 48f
11:50 12ft 11s 8s 16 18 mph 997.9mb 49f 49f
10:50 11.5ft 12s 8s 18 20 mph 998.1mb 49f 49f
9:50 12ft 12s 8s 16 20 mph 997.7mb 49f 49f
8:50 11.5ft 13s 8s 16 20 mph 997.1mb 49f 48f
7:50 11ft 12s 8s 20 25 mph 996.3mb 49f 48f
6:50 13ft 11s 8s 18 20 mph 995.8mb 49f 48f
5:50 13ft 11s 8s 16 20 mph 995.4mb 49f 49f
4:50 13ft 12s 8s 22 25 mph 995.3mb 49f 48f
3:50 14.5ft 11s 9s 20 27 mph 995.2mb 49f 49f
2:50 12.5ft 12s 8s 22 27 mph 995mb 49f 50f
1:50 13ft 12s 8s 25 31 mph 994.2mb 49f 50f
12:50 13ft 12s 9s 22 27 mph 993.6mb 50f 50f
mer. 01/18 11:50 13ft 11s 9s 22 27 mph 993.3mb 49f 50f
10:50 13ft 12s 9s 18 22 mph 992.6mb 49f 50f
9:50 13.5ft 11s 9s 18 22 mph 991.5mb 49f 50f
8:50 12.5ft 11s 9s 20 25 mph 990.8mb 50f 48f
7:50 14ft 13s 9s 11 18 mph 990mb 50f 49f
6:50 14ft 13s 9s 11 16 mph 989.3mb 50f 49f
5:50 14ft 12s 9s 16 22 mph 988.9mb 50f 50f
4:50 13ft 13s 9s 13 16 mph 989mb 50f 50f
3:50 15ft 11s 9s 13 18 mph 989.8mb 50f 50f
2:50 15ft 11s 9s 20 25 mph 990mb 50f 50f
1:50 15.5ft 14s 9s 22 27 mph 990.6mb 50f 51f
12:50 16ft 12s 9s 22 27 mph 991.3mb 50f 51f
11:50 17ft 13s 9s 25 31 mph 991.2mb 50f 51f
10:50 20.5ft 14s 10s 25 31 mph 991.6mb 49f 52f
9:50 22.5ft 14s 10s 27 34 mph 991.3mb 49f 52f
8:50 23ft 13s 10s 31 38 mph 990.6mb 49f 52f
7:50 23ft 13s 10s 34 45 mph 990mb 49f 52f
6:50 23.5ft 13s 10s 40 51 mph 989.3mb 49f 52f
5:50 23ft 14s 10s 36 47 mph 989.3mb 49f 51f
4:50 22.5ft 14s 10s 34 43 mph 991mb 49f 52f
3:50 20ft 11s 9s 34 43 mph 992.5mb 50f 52f